Change the Weather History Date:

Saturday, October 20, 2012

  Actual Average Record
Temperature  
Mean Temperature 82 °F -  
Max Temperature 90 °F 86 °F - ()
Min Temperature 73 °F 72 °F - ()
Cooling Degree Days 16    
Growing Degree Days 32 (Base 50)    
Moisture  
Dew Point 76 °F    
Average Humidity 85    
Maximum Humidity 100    
Minimum Humidity 52    
Precipitation  
Precipitation 0.00 in 0.40 in - ()
Sea Level Pressure  
Sea Level Pressure 29.84 in    
Wind  
Wind Speed 4 mph ()    
Max Wind Speed 15 mph    
Max Gust Speed -    
Visibility 4.0 miles    
Events Rain    
T = Trace of Precipitation, MM = Missing Value Source: Averaged Metar Reports

Daily Weather History Graph

Daily Weather History Graph

Search for Another Location

Airport or City:

Trip Planner

Search our weather history database for the weather conditions in past years. The results will help you decide how hot, cold, wet, or windy it might be!

Date:

Astronomy

Oct. 20, 2012 Rise Set
Actual Time 6:11 AM ICT 6:04 PM ICT
Civil Twilight 5:50 AM ICT 6:25 PM ICT
Nautical Twilight 5:25 AM ICT 6:50 PM ICT
Astronomical Twilight 5:01 AM ICT 7:15 PM ICT
Moon 10:46 AM ICT (10/20) 10:46 PM ICT (10/20)
Length of Visible Light 12h 35m
Length of Day
11h 53m
Waxing Crescent, 29% of the Moon is Illuminated
Oct 20
Waxing Crescent
Oct 22
First Quarter
Oct 30
Full
Nov 7
Last Quarter
Nov 14
New

Hourly Weather History & Observations

Time (ICT) Temp. Heat Index Dew Point Humidity Pressure Visibility Wind Dir Wind Speed Gust Speed Precip Events Conditions
12:00 AM 77.0 °F - 75.2 °F 94% 29.89 in 3.7 mi Calm Calm - N/A   Mostly Cloudy
1:00 AM 76 °F - 75 °F 95% 29.87 in 3 mi Calm Calm - -   Mist
5:00 AM 75.2 °F - 73.4 °F 94% 29.80 in 2.5 mi Calm Calm - N/A   Partly Cloudy
6:00 AM 75.2 °F - 73.4 °F 94% 29.80 in 2.5 mi Calm Calm - N/A   Partly Cloudy
7:00 AM 74 °F - 73 °F 96% 29.85 in 3 mi Calm Calm - -   Mist
7:00 AM 75.2 °F - 73.4 °F 94% 29.83 in 3.1 mi Calm Calm - N/A   Scattered Clouds
8:00 AM 80.6 °F 87.1 °F 77.0 °F 89% 29.86 in 5.0 mi NNW 4.6 mph - N/A   Partly Cloudy
9:00 AM 84.2 °F 94.1 °F 77.0 °F 79% 29.89 in 6.2 mi North 5.8 mph - N/A   Partly Cloudy
10:00 AM 86.0 °F 96.9 °F 77.0 °F 74% 29.89 in 6.2 mi ENE 10.4 mph - N/A   Scattered Clouds
11:00 AM 87.8 °F 99.7 °F 77.0 °F 70% 29.89 in 6.2 mi NE 10.4 mph - N/A   Scattered Clouds
12:00 PM 87.8 °F 99.7 °F 77.0 °F 70% 29.86 in 5.0 mi NE 12.7 mph - N/A   Partly Cloudy
1:00 PM 90 °F - 75 °F 52% 29.84 in 5 mi NNE 6.9 mph - -   Haze
1:00 PM 89.6 °F 102.2 °F 77.0 °F 66% 29.83 in 5.0 mi NE 13.8 mph - N/A   Partly Cloudy
3:00 PM 86.0 °F 96.9 °F 77.0 °F 74% 29.77 in 3.7 mi NE 15.0 mph - N/A Rain Light Rain
4:00 PM 80.6 °F 88.1 °F 78.8 °F 94% 29.77 in 3.7 mi ENE 4.6 mph - N/A   Overcast
5:00 PM 84.2 °F 94.1 °F 77.0 °F 79% 29.77 in 3.7 mi ENE 10.4 mph - N/A   Mostly Cloudy
6:00 PM 80.6 °F 87.1 °F 77.0 °F 89% 29.83 in 3.7 mi ENE 10.4 mph - N/A   Overcast
7:00 PM 80 °F - 77 °F 87% 29.82 in 4 mi Calm Calm - -   Overcast
7:00 PM 78.8 °F - 77.0 °F 94% 29.83 in 3.1 mi NE 4.6 mph - N/A   Overcast
8:00 PM 78.8 °F - 77.0 °F 94% 29.86 in 3.1 mi North 2.3 mph - N/A   Overcast
9:00 PM 77.0 °F - 77.0 °F 100% 29.86 in 3.1 mi West 2.3 mph - N/A   Mostly Cloudy